Year,Month,Day,Hour,Minute,Value (Times are PST for temperature in C)
2010,08,23,00,00,13.20
2010,08,23,00,01,13.30
2010,08,23,00,02,13.30
2010,08,23,00,03,13.30
2010,08,23,00,04,13.30
2010,08,23,00,05,13.40
2010,08,23,00,06,13.40
2010,08,23,00,07,13.40
2010,08,23,00,08,13.40
2010,08,23,00,09,13.40
2010,08,23,00,10,13.40
2010,08,23,00,11,13.50
2010,08,23,00,12,13.50
2010,08,23,00,13,13.50
2010,08,23,00,14,13.50
2010,08,23,00,15,13.50
2010,08,23,00,16,13.50
2010,08,23,00,17,13.50
2010,08,23,00,18,13.50
2010,08,23,00,19,13.50
2010,08,23,00,20,13.50
2010,08,23,00,21,13.50
2010,08,23,00,22,13.50
2010,08,23,00,23,13.50
2010,08,23,00,24,13.50
2010,08,23,00,25,13.60
2010,08,23,00,26,13.50
2010,08,23,00,27,13.60
2010,08,23,00,28,13.60
2010,08,23,00,29,13.60
2010,08,23,00,30,13.60
2010,08,23,00,31,13.60
2010,08,23,00,32,13.60
2010,08,23,00,33,13.60
2010,08,23,00,34,13.60
2010,08,23,00,35,13.60
2010,08,23,00,36,13.60
2010,08,23,00,37,13.60
2010,08,23,00,38,13.60
2010,08,23,00,39,13.60
2010,08,23,00,40,13.60
2010,08,23,00,41,13.60
2010,08,23,00,42,13.50
2010,08,23,00,43,13.50
2010,08,23,00,44,13.50
2010,08,23,00,45,13.40
2010,08,23,00,46,13.40
2010,08,23,00,47,13.40
2010,08,23,00,48,13.40
2010,08,23,00,49,13.40
2010,08,23,00,50,13.40
2010,08,23,00,51,13.40
2010,08,23,00,52,13.40
2010,08,23,00,53,13.40
2010,08,23,00,54,13.30
2010,08,23,00,55,13.30
2010,08,23,00,56,13.20
2010,08,23,00,57,13.20
2010,08,23,00,58,13.10
2010,08,23,00,59,13.10
2010,08,23,01,00,13.00
2010,08,23,01,01,12.90
2010,08,23,01,02,12.90
2010,08,23,01,03,12.80
2010,08,23,01,04,12.70
2010,08,23,01,05,12.70
2010,08,23,01,06,12.60
2010,08,23,01,07,12.50
2010,08,23,01,08,12.40
2010,08,23,01,09,12.40
2010,08,23,01,10,12.30
2010,08,23,01,11,12.20
2010,08,23,01,12,12.20
2010,08,23,01,13,12.10
2010,08,23,01,14,12.00
2010,08,23,01,15,12.00
2010,08,23,01,16,11.90
2010,08,23,01,17,11.90
2010,08,23,01,18,11.80
2010,08,23,01,19,11.80
2010,08,23,01,20,11.80
2010,08,23,01,21,11.70
2010,08,23,01,22,11.70
2010,08,23,01,23,11.70
2010,08,23,01,24,11.60
2010,08,23,01,25,11.60
2010,08,23,01,26,11.60
2010,08,23,01,27,11.60
2010,08,23,01,28,11.50
2010,08,23,01,29,11.50
2010,08,23,01,30,11.50
2010,08,23,01,31,11.40
2010,08,23,01,32,11.40
2010,08,23,01,33,11.40
2010,08,23,01,34,11.30
2010,08,23,01,35,11.30
2010,08,23,01,36,11.30
2010,08,23,01,37,11.20
2010,08,23,01,38,11.20
2010,08,23,01,39,11.20
2010,08,23,01,40,11.20
2010,08,23,01,41,11.10
2010,08,23,01,42,11.10
2010,08,23,01,43,11.10
2010,08,23,01,44,11.10
2010,08,23,01,45,11.00
2010,08,23,01,46,11.00
2010,08,23,01,47,10.90
2010,08,23,01,48,10.90
2010,08,23,01,49,10.90
2010,08,23,01,50,10.80
2010,08,23,01,51,10.80
2010,08,23,01,52,10.80
2010,08,23,01,53,10.80
2010,08,23,01,54,10.70
2010,08,23,01,55,10.70
2010,08,23,01,56,10.70
2010,08,23,01,57,10.70
2010,08,23,01,58,10.60
2010,08,23,01,59,10.60
2010,08,23,02,00,10.60
2010,08,23,02,01,10.50
2010,08,23,02,02,10.50
2010,08,23,02,03,10.50
2010,08,23,02,04,10.40
2010,08,23,02,05,10.40
2010,08,23,02,06,10.40
2010,08,23,02,07,10.30
2010,08,23,02,08,10.30
2010,08,23,02,09,10.30
2010,08,23,02,10,10.30
2010,08,23,02,11,10.20
2010,08,23,02,12,10.20
2010,08,23,02,13,10.20
2010,08,23,02,14,10.20
2010,08,23,02,15,10.10
2010,08,23,02,16,10.10
2010,08,23,02,17,10.10
2010,08,23,02,18,10.00
2010,08,23,02,19,10.00
2010,08,23,02,20,9.90
2010,08,23,02,21,9.90
2010,08,23,02,22,9.90
2010,08,23,02,23,9.90
2010,08,23,02,24,9.80
2010,08,23,02,25,9.80
2010,08,23,02,26,9.80
2010,08,23,02,27,9.80
2010,08,23,02,28,9.80
2010,08,23,02,29,9.80
2010,08,23,02,30,9.70
2010,08,23,02,31,9.70
2010,08,23,02,32,9.70
2010,08,23,02,33,9.70
2010,08,23,02,34,9.70
2010,08,23,02,35,9.60
2010,08,23,02,36,9.60
2010,08,23,02,37,9.60
2010,08,23,02,38,9.50
2010,08,23,02,39,9.50
2010,08,23,02,40,9.40
2010,08,23,02,41,9.40
2010,08,23,02,42,9.40
2010,08,23,02,43,9.40
2010,08,23,02,44,9.40
2010,08,23,02,45,9.30
2010,08,23,02,46,9.30
2010,08,23,02,47,9.30
2010,08,23,02,48,9.30
2010,08,23,02,49,9.30
2010,08,23,02,50,9.20
2010,08,23,02,51,9.20
2010,08,23,02,52,9.20
2010,08,23,02,53,9.20
2010,08,23,02,54,9.20
2010,08,23,02,55,9.20
2010,08,23,02,56,9.10
2010,08,23,02,57,9.10
2010,08,23,02,58,9.10
2010,08,23,02,59,9.10
2010,08,23,03,00,9.00
2010,08,23,03,01,9.00
2010,08,23,03,02,9.00
2010,08,23,03,03,8.90
2010,08,23,03,04,8.90
2010,08,23,03,05,8.90
2010,08,23,03,06,8.90
2010,08,23,03,07,8.90
2010,08,23,03,08,8.90
2010,08,23,03,09,8.90
2010,08,23,03,10,8.90
2010,08,23,03,11,8.90
2010,08,23,03,12,8.90
2010,08,23,03,13,8.80
2010,08,23,03,14,8.80
2010,08,23,03,15,8.80
2010,08,23,03,16,8.80
2010,08,23,03,17,8.70
2010,08,23,03,18,8.70
2010,08,23,03,19,8.70
2010,08,23,03,20,8.70
2010,08,23,03,21,8.60
2010,08,23,03,22,8.60
2010,08,23,03,23,8.60
2010,08,23,03,24,8.50
2010,08,23,03,25,8.50
2010,08,23,03,26,8.50
2010,08,23,03,27,8.50
2010,08,23,03,28,8.50
2010,08,23,03,29,8.40
2010,08,23,03,30,8.40
2010,08,23,03,31,8.40
2010,08,23,03,32,8.40
2010,08,23,03,33,8.40
2010,08,23,03,34,8.40
2010,08,23,03,35,8.40
2010,08,23,03,36,8.40
2010,08,23,03,37,8.40
2010,08,23,03,38,8.40
2010,08,23,03,39,8.40
2010,08,23,03,40,8.40
2010,08,23,03,41,8.40
2010,08,23,03,42,8.40
2010,08,23,03,43,8.40
2010,08,23,03,44,8.40
2010,08,23,03,45,8.40
2010,08,23,03,46,8.40
2010,08,23,03,47,8.30
2010,08,23,03,48,8.30
2010,08,23,03,49,8.30
2010,08,23,03,50,8.30
2010,08,23,03,51,8.30
2010,08,23,03,52,8.30
2010,08,23,03,53,8.30
2010,08,23,03,54,8.30
2010,08,23,03,55,8.20
2010,08,23,03,56,8.20
2010,08,23,03,57,8.20
2010,08,23,03,58,8.20
2010,08,23,03,59,8.20
2010,08,23,04,00,8.10
2010,08,23,04,01,8.10
2010,08,23,04,02,8.10
2010,08,23,04,03,8.10
2010,08,23,04,04,8.10
2010,08,23,04,05,8.00
2010,08,23,04,06,8.00
2010,08,23,04,07,8.00
2010,08,23,04,08,7.90
2010,08,23,04,09,7.90
2010,08,23,04,10,7.90
2010,08,23,04,11,7.90
2010,08,23,04,12,7.90
2010,08,23,04,13,7.90
2010,08,23,04,14,7.90
2010,08,23,04,15,7.90
2010,08,23,04,16,7.90
2010,08,23,04,17,7.80
2010,08,23,04,18,7.80
2010,08,23,04,19,7.80
2010,08,23,04,20,7.80
2010,08,23,04,21,7.80
2010,08,23,04,22,7.80
2010,08,23,04,23,7.80
2010,08,23,04,24,7.80
2010,08,23,04,25,7.80
2010,08,23,04,26,7.80
2010,08,23,04,27,7.80
2010,08,23,04,28,7.80
2010,08,23,04,29,7.80
2010,08,23,04,30,7.80
2010,08,23,04,31,7.80
2010,08,23,04,32,7.80
2010,08,23,04,33,7.80
2010,08,23,04,34,7.80
2010,08,23,04,35,7.80
2010,08,23,04,36,7.80
2010,08,23,04,37,7.80
2010,08,23,04,38,7.80
2010,08,23,04,39,7.80
2010,08,23,04,40,7.70
2010,08,23,04,41,7.70
2010,08,23,04,42,7.70
2010,08,23,04,43,7.70
2010,08,23,04,44,7.70
2010,08,23,04,45,7.70
2010,08,23,04,46,7.60
2010,08,23,04,47,7.60
2010,08,23,04,48,7.60
2010,08,23,04,49,7.60
2010,08,23,04,50,7.60
2010,08,23,04,51,7.50
2010,08,23,04,52,7.50
2010,08,23,04,53,7.50
2010,08,23,04,54,7.50
2010,08,23,04,55,7.50
2010,08,23,04,56,7.50
2010,08,23,04,57,7.50
2010,08,23,04,58,7.50
2010,08,23,04,59,7.50
2010,08,23,05,00,7.50
2010,08,23,05,01,7.50
2010,08,23,05,02,7.50
2010,08,23,05,03,7.50
2010,08,23,05,04,7.40
2010,08,23,05,05,7.40
2010,08,23,05,06,7.40
2010,08,23,05,07,7.40
2010,08,23,05,08,7.40
2010,08,23,05,09,7.40
2010,08,23,05,10,7.40
2010,08,23,05,11,7.40
2010,08,23,05,12,7.30
2010,08,23,05,13,7.30
2010,08,23,05,14,7.30
2010,08,23,05,15,7.30
2010,08,23,05,16,7.20
2010,08,23,05,17,7.20
2010,08,23,05,18,7.20
2010,08,23,05,19,7.20
2010,08,23,05,20,7.20
2010,08,23,05,21,7.20
2010,08,23,05,22,7.20
2010,08,23,05,23,7.20
2010,08,23,05,24,7.20
2010,08,23,05,25,7.20
2010,08,23,05,26,7.30
2010,08,23,05,27,7.30
2010,08,23,05,28,7.30
2010,08,23,05,29,7.30
2010,08,23,05,30,7.30
2010,08,23,05,31,7.30
2010,08,23,05,32,7.30
2010,08,23,05,33,7.30
2010,08,23,05,34,7.30
2010,08,23,05,35,7.20
2010,08,23,05,36,7.20
2010,08,23,05,37,7.20
2010,08,23,05,38,7.20
2010,08,23,05,39,7.20
2010,08,23,05,40,7.20
2010,08,23,05,41,7.20
2010,08,23,05,42,7.20
2010,08,23,05,43,7.20
2010,08,23,05,44,7.20
2010,08,23,05,45,7.20
2010,08,23,05,46,7.20
2010,08,23,05,47,7.20
2010,08,23,05,48,7.20
2010,08,23,05,49,7.20
2010,08,23,05,50,7.20
2010,08,23,05,51,7.20
2010,08,23,05,52,7.20
2010,08,23,05,53,7.20
2010,08,23,05,54,7.20
2010,08,23,05,55,7.20
2010,08,23,05,56,7.20
2010,08,23,05,57,7.20
2010,08,23,05,58,7.20
2010,08,23,05,59,7.10
2010,08,23,06,00,7.10
2010,08,23,06,01,7.10
2010,08,23,06,02,7.10
2010,08,23,06,03,7.10
2010,08,23,06,04,7.10
2010,08,23,06,05,7.10
2010,08,23,06,06,7.10
2010,08,23,06,07,7.10
2010,08,23,06,08,7.10
2010,08,23,06,09,7.00
2010,08,23,06,10,7.00
2010,08,23,06,11,7.00
2010,08,23,06,12,6.90
2010,08,23,06,13,6.90
2010,08,23,06,14,6.90
2010,08,23,06,15,6.90
2010,08,23,06,16,6.90
2010,08,23,06,17,6.90
2010,08,23,06,18,6.90
2010,08,23,06,19,6.90
2010,08,23,06,20,6.90
2010,08,23,06,21,7.00
2010,08,23,06,22,7.00
2010,08,23,06,23,7.00
2010,08,23,06,24,7.00
2010,08,23,06,25,7.00
2010,08,23,06,26,7.00
2010,08,23,06,27,7.00
2010,08,23,06,28,7.00
2010,08,23,06,29,7.00
2010,08,23,06,30,7.00
2010,08,23,06,31,7.00
2010,08,23,06,32,7.00
2010,08,23,06,33,7.00
2010,08,23,06,34,7.00
2010,08,23,06,35,7.00
2010,08,23,06,36,6.90
2010,08,23,06,37,6.90
2010,08,23,06,38,6.90
2010,08,23,06,39,6.90
2010,08,23,06,40,6.90
2010,08,23,06,41,6.90
2010,08,23,06,42,7.00
2010,08,23,06,43,7.00
2010,08,23,06,44,7.00
2010,08,23,06,45,7.00
2010,08,23,06,46,7.00
2010,08,23,06,47,7.00
2010,08,23,06,48,7.00
2010,08,23,06,49,7.00
2010,08,23,06,50,7.00
2010,08,23,06,51,7.00
2010,08,23,06,52,6.90
2010,08,23,06,53,6.90
2010,08,23,06,54,6.90
2010,08,23,06,55,6.90
2010,08,23,06,56,6.90
2010,08,23,06,57,6.90
2010,08,23,06,58,6.90
2010,08,23,06,59,6.90
2010,08,23,07,00,6.90
2010,08,23,07,01,6.90
2010,08,23,07,02,7.00
2010,08,23,07,03,7.00
2010,08,23,07,04,6.90
2010,08,23,07,05,6.90
2010,08,23,07,06,7.00
2010,08,23,07,07,7.00
2010,08,23,07,08,7.00
2010,08,23,07,09,7.00
2010,08,23,07,10,7.10
2010,08,23,07,11,7.10
2010,08,23,07,12,7.10
2010,08,23,07,13,7.20
2010,08,23,07,14,7.20
2010,08,23,07,15,7.20
2010,08,23,07,16,7.20
2010,08,23,07,17,7.20
2010,08,23,07,18,7.30
2010,08,23,07,19,7.30
2010,08,23,07,20,7.40
2010,08,23,07,21,7.50
2010,08,23,07,22,7.50
2010,08,23,07,23,7.60
2010,08,23,07,24,7.70
2010,08,23,07,25,7.70
2010,08,23,07,26,7.80
2010,08,23,07,27,7.80
2010,08,23,07,28,7.90
2010,08,23,07,29,8.00
2010,08,23,07,30,8.00
2010,08,23,07,31,8.10
2010,08,23,07,32,8.20
2010,08,23,07,33,8.40
2010,08,23,07,34,8.50
2010,08,23,07,35,8.60
2010,08,23,07,36,8.70
2010,08,23,07,37,8.90
2010,08,23,07,38,9.00
2010,08,23,07,39,9.20
2010,08,23,07,40,9.30
2010,08,23,07,41,9.40
2010,08,23,07,42,9.50
2010,08,23,07,43,9.60
2010,08,23,07,44,9.60
2010,08,23,07,45,9.70
2010,08,23,07,46,9.70
2010,08,23,07,47,9.70
2010,08,23,07,48,9.80
2010,08,23,07,49,9.80
2010,08,23,07,50,9.90
2010,08,23,07,51,10.00
2010,08,23,07,52,10.10
2010,08,23,07,53,10.20
2010,08,23,07,54,10.30
2010,08,23,07,55,10.40
2010,08,23,07,56,10.50
2010,08,23,07,57,10.60
2010,08,23,07,58,10.70
2010,08,23,07,59,10.80
2010,08,23,08,00,10.90
2010,08,23,08,01,10.90
2010,08,23,08,02,11.00
2010,08,23,08,03,11.10
2010,08,23,08,04,11.20
2010,08,23,08,05,11.30
2010,08,23,08,06,11.40
2010,08,23,08,07,11.50
2010,08,23,08,08,11.60
2010,08,23,08,09,11.70
2010,08,23,08,10,11.80
2010,08,23,08,11,11.90
2010,08,23,08,12,11.90
2010,08,23,08,13,12.00
2010,08,23,08,14,12.10
2010,08,23,08,15,12.30
2010,08,23,08,16,12.40
2010,08,23,08,17,12.50
2010,08,23,08,18,12.70
2010,08,23,08,19,12.80
2010,08,23,08,20,12.90
2010,08,23,08,21,13.10
2010,08,23,08,22,13.20
2010,08,23,08,23,13.30
2010,08,23,08,24,13.40
2010,08,23,08,25,13.60
2010,08,23,08,26,13.70
2010,08,23,08,27,13.80
2010,08,23,08,28,13.90
2010,08,23,08,29,14.00
2010,08,23,08,30,14.00
2010,08,23,08,31,14.10
2010,08,23,08,32,14.10
2010,08,23,08,33,14.20
2010,08,23,08,34,14.30
2010,08,23,08,35,14.40
2010,08,23,08,36,14.50
2010,08,23,08,37,14.60
2010,08,23,08,38,14.70
2010,08,23,08,39,14.80
2010,08,23,08,40,14.90
2010,08,23,08,41,15.00
2010,08,23,08,42,15.00
2010,08,23,08,43,15.00
2010,08,23,08,44,15.00
2010,08,23,08,45,15.00
2010,08,23,08,46,15.00
2010,08,23,08,47,15.10
2010,08,23,08,48,15.10
2010,08,23,08,49,15.20
2010,08,23,08,50,15.30
2010,08,23,08,51,15.30
2010,08,23,08,52,15.30
2010,08,23,08,53,15.30
2010,08,23,08,54,15.30
2010,08,23,08,55,15.40
2010,08,23,08,56,15.40
2010,08,23,08,57,15.50
2010,08,23,08,58,15.60
2010,08,23,08,59,15.70
2010,08,23,09,00,15.70
2010,08,23,09,01,15.80
2010,08,23,09,02,15.80
2010,08,23,09,03,15.80
2010,08,23,09,04,15.80
2010,08,23,09,05,15.70
2010,08,23,09,06,15.60
2010,08,23,09,07,15.60
2010,08,23,09,08,15.60
2010,08,23,09,09,15.60
2010,08,23,09,10,15.70
2010,08,23,09,11,15.80
2010,08,23,09,12,15.80
2010,08,23,09,13,15.80
2010,08,23,09,14,15.90
2010,08,23,09,15,15.90
2010,08,23,09,16,15.90
2010,08,23,09,17,15.90
2010,08,23,09,18,15.90
2010,08,23,09,19,16.00
2010,08,23,09,20,16.00
2010,08,23,09,21,16.00
2010,08,23,09,22,16.00
2010,08,23,09,23,15.90
2010,08,23,09,24,15.90
2010,08,23,09,25,15.90
2010,08,23,09,26,16.00
2010,08,23,09,27,16.10
2010,08,23,09,28,16.20
2010,08,23,09,29,16.20
2010,08,23,09,30,16.20
2010,08,23,09,31,16.10
2010,08,23,09,32,16.10
2010,08,23,09,33,16.10
2010,08,23,09,34,16.20
2010,08,23,09,35,16.20
2010,08,23,09,36,16.20
2010,08,23,09,37,16.30
2010,08,23,09,38,16.30
2010,08,23,09,39,16.30
2010,08,23,09,40,16.30
2010,08,23,09,41,16.30
2010,08,23,09,42,16.30
2010,08,23,09,43,16.30
2010,08,23,09,44,16.30
2010,08,23,09,45,16.20
2010,08,23,09,46,16.20
2010,08,23,09,47,16.20
2010,08,23,09,48,16.20
2010,08,23,09,49,16.30
2010,08,23,09,50,16.30
2010,08,23,09,51,16.40
2010,08,23,09,52,16.40
2010,08,23,09,53,16.30
2010,08,23,09,54,16.30
2010,08,23,09,55,16.30
2010,08,23,09,56,16.20
2010,08,23,09,57,16.20
2010,08,23,09,58,16.30
2010,08,23,09,59,16.30
2010,08,23,10,00,16.40
2010,08,23,10,01,16.50
2010,08,23,10,02,16.60
2010,08,23,10,03,16.60
2010,08,23,10,04,16.60
2010,08,23,10,05,16.60
2010,08,23,10,06,16.60
2010,08,23,10,07,16.60
2010,08,23,10,08,16.60
2010,08,23,10,09,16.60
2010,08,23,10,10,16.60
2010,08,23,10,11,16.50
2010,08,23,10,12,16.50
2010,08,23,10,13,16.50
2010,08,23,10,14,16.50
2010,08,23,10,15,16.40
2010,08,23,10,16,16.40
2010,08,23,10,17,16.40
2010,08,23,10,18,16.40
2010,08,23,10,19,16.40
2010,08,23,10,20,16.50
2010,08,23,10,21,16.60
2010,08,23,10,22,16.60
2010,08,23,10,23,16.70
2010,08,23,10,24,16.80
2010,08,23,10,25,16.80
2010,08,23,10,26,16.70
2010,08,23,10,27,16.70
2010,08,23,10,28,16.70
2010,08,23,10,29,16.60
2010,08,23,10,30,16.50
2010,08,23,10,31,16.50
2010,08,23,10,32,16.50
2010,08,23,10,33,16.50
2010,08,23,10,34,16.50
2010,08,23,10,35,16.60
2010,08,23,10,36,16.70
2010,08,23,10,37,16.70
2010,08,23,10,38,16.80
2010,08,23,10,39,16.90
2010,08,23,10,40,17.00
2010,08,23,10,41,17.10
2010,08,23,10,42,17.20
2010,08,23,10,43,17.30
2010,08,23,10,44,17.30
2010,08,23,10,45,17.40
2010,08,23,10,46,17.50
2010,08,23,10,47,17.50
2010,08,23,10,48,17.50
2010,08,23,10,49,17.40
2010,08,23,10,50,17.30
2010,08,23,10,51,17.30
2010,08,23,10,52,17.30
2010,08,23,10,53,17.30
2010,08,23,10,54,17.30
2010,08,23,10,55,17.30
2010,08,23,10,56,17.30
2010,08,23,10,57,17.30
2010,08,23,10,58,17.30
2010,08,23,10,59,17.20
2010,08,23,11,00,17.10
2010,08,23,11,01,17.10
2010,08,23,11,02,17.10
2010,08,23,11,03,17.20
2010,08,23,11,04,17.20
2010,08,23,11,05,17.20
2010,08,23,11,06,17.30
2010,08,23,11,07,17.30
2010,08,23,11,08,17.30
2010,08,23,11,09,17.40
2010,08,23,11,10,17.50
2010,08,23,11,11,17.40
2010,08,23,11,12,17.40
2010,08,23,11,13,17.40
2010,08,23,11,14,17.40
2010,08,23,11,15,17.40
2010,08,23,11,16,17.40
2010,08,23,11,17,17.40
2010,08,23,11,18,17.40
2010,08,23,11,19,17.40
2010,08,23,11,20,17.40
2010,08,23,11,21,17.50
2010,08,23,11,22,17.60
2010,08,23,11,23,17.70
2010,08,23,11,24,17.90
2010,08,23,11,25,18.00
2010,08,23,11,26,18.10
2010,08,23,11,27,18.10
2010,08,23,11,28,17.90
2010,08,23,11,29,17.80
2010,08,23,11,30,17.60
2010,08,23,11,31,17.40
2010,08,23,11,32,17.30
2010,08,23,11,33,17.30
2010,08,23,11,34,17.40
2010,08,23,11,35,17.40
2010,08,23,11,36,17.50
2010,08,23,11,37,17.60
2010,08,23,11,38,17.70
2010,08,23,11,39,17.70
2010,08,23,11,40,17.70
2010,08,23,11,41,17.70
2010,08,23,11,42,17.70
2010,08,23,11,43,17.50
2010,08,23,11,44,17.40
2010,08,23,11,45,17.30
2010,08,23,11,46,17.10
2010,08,23,11,47,17.00
2010,08,23,11,48,16.90
2010,08,23,11,49,16.90
2010,08,23,11,50,16.90
2010,08,23,11,51,17.10
2010,08,23,11,52,17.20
2010,08,23,11,53,17.40
2010,08,23,11,54,17.50
2010,08,23,11,55,17.60
2010,08,23,11,56,17.60
2010,08,23,11,57,17.70
2010,08,23,11,58,17.70
2010,08,23,11,59,17.70
2010,08,23,12,00,17.70
2010,08,23,12,01,17.70
2010,08,23,12,02,17.60
2010,08,23,12,03,17.50
2010,08,23,12,04,17.50
2010,08,23,12,05,17.60
2010,08,23,12,06,17.60
2010,08,23,12,07,17.60
2010,08,23,12,08,17.50
2010,08,23,12,09,17.50
2010,08,23,12,10,17.50
2010,08,23,12,11,17.40
2010,08,23,12,12,17.40
2010,08,23,12,13,17.30
2010,08,23,12,14,17.20
2010,08,23,12,15,17.20
2010,08,23,12,16,17.30
2010,08,23,12,17,17.30
2010,08,23,12,18,17.30
2010,08,23,12,19,17.30
2010,08,23,12,20,17.30
2010,08,23,12,21,17.30
2010,08,23,12,22,17.50
2010,08,23,12,23,17.50
2010,08,23,12,24,17.50
2010,08,23,12,25,17.50
2010,08,23,12,26,17.50
2010,08,23,12,27,17.50
2010,08,23,12,28,17.50
2010,08,23,12,29,17.40
2010,08,23,12,30,17.40
2010,08,23,12,31,17.40
2010,08,23,12,32,17.50
2010,08,23,12,33,17.60
2010,08,23,12,34,17.80
2010,08,23,12,35,18.00
2010,08,23,12,36,18.20
2010,08,23,12,37,18.30
2010,08,23,12,38,18.20
2010,08,23,12,39,18.10
2010,08,23,12,40,18.00
2010,08,23,12,41,17.90
2010,08,23,12,42,17.90
2010,08,23,12,43,17.90
2010,08,23,12,44,18.00
2010,08,23,12,45,18.00
2010,08,23,12,46,18.20
2010,08,23,12,47,18.30
2010,08,23,12,48,18.30
2010,08,23,12,49,18.20
2010,08,23,12,50,18.20
2010,08,23,12,51,18.10
2010,08,23,12,52,18.00
2010,08,23,12,53,17.90
2010,08,23,12,54,17.90
2010,08,23,12,55,17.90
2010,08,23,12,56,17.80
2010,08,23,12,57,17.90
2010,08,23,12,58,17.90
2010,08,23,12,59,18.00
2010,08,23,13,00,18.00
2010,08,23,13,01,18.20
2010,08,23,13,02,18.30
2010,08,23,13,03,18.40
2010,08,23,13,04,18.30
2010,08,23,13,05,18.30
2010,08,23,13,06,18.30
2010,08,23,13,07,18.10
2010,08,23,13,08,18.00
2010,08,23,13,09,18.00
2010,08,23,13,10,18.10
2010,08,23,13,11,18.20
2010,08,23,13,12,18.30
2010,08,23,13,13,18.40
2010,08,23,13,14,18.60
2010,08,23,13,15,18.70
2010,08,23,13,16,18.70
2010,08,23,13,17,18.80
2010,08,23,13,18,18.70
2010,08,23,13,19,18.70
2010,08,23,13,20,18.80
2010,08,23,13,21,18.90
2010,08,23,13,22,18.80
2010,08,23,13,23,18.70
2010,08,23,13,24,18.80
2010,08,23,13,25,18.70
2010,08,23,13,26,18.70
2010,08,23,13,27,18.60
2010,08,23,13,28,18.50
2010,08,23,13,29,18.40
2010,08,23,13,30,18.30
2010,08,23,13,31,18.30
2010,08,23,13,32,18.20
2010,08,23,13,33,18.20
2010,08,23,13,34,18.20
2010,08,23,13,35,18.10
2010,08,23,13,36,18.20
2010,08,23,13,37,18.10
2010,08,23,13,38,18.10
2010,08,23,13,39,18.00
2010,08,23,13,40,18.00
2010,08,23,13,41,18.00
2010,08,23,13,42,17.90
2010,08,23,13,43,18.00
2010,08,23,13,44,18.00
2010,08,23,13,45,18.00
2010,08,23,13,46,18.00
2010,08,23,13,47,18.10
2010,08,23,13,48,18.20
2010,08,23,13,49,18.30
2010,08,23,13,50,18.30
2010,08,23,13,51,18.40
2010,08,23,13,52,18.50
2010,08,23,13,53,18.60
2010,08,23,13,54,18.70
2010,08,23,13,55,18.80
2010,08,23,13,56,18.70
2010,08,23,13,57,18.60
2010,08,23,13,58,18.50
2010,08,23,13,59,18.50
2010,08,23,14,00,18.60
2010,08,23,14,01,18.70
2010,08,23,14,02,18.80
2010,08,23,14,03,19.00
2010,08,23,14,04,19.10
2010,08,23,14,05,19.10
2010,08,23,14,06,19.10
2010,08,23,14,07,19.10
2010,08,23,14,08,19.10
2010,08,23,14,09,19.20
2010,08,23,14,10,19.20
2010,08,23,14,11,19.20
2010,08,23,14,12,19.30
2010,08,23,14,13,19.30
2010,08,23,14,14,19.40
2010,08,23,14,15,19.50
2010,08,23,14,16,19.50
2010,08,23,14,17,19.40
2010,08,23,14,18,19.30
2010,08,23,14,19,19.30
2010,08,23,14,20,19.20
2010,08,23,14,21,19.20
2010,08,23,14,22,19.10
2010,08,23,14,23,19.10
2010,08,23,14,24,19.10
2010,08,23,14,25,19.20
2010,08,23,14,26,19.20
2010,08,23,14,27,19.20
2010,08,23,14,28,19.20
2010,08,23,14,29,19.20
2010,08,23,14,30,19.10
2010,08,23,14,31,19.10
2010,08,23,14,32,19.10
2010,08,23,14,33,19.10
2010,08,23,14,34,19.00
2010,08,23,14,35,18.90
2010,08,23,14,36,18.90
2010,08,23,14,37,18.80
2010,08,23,14,38,18.80
2010,08,23,14,39,18.80
2010,08,23,14,40,18.70
2010,08,23,14,41,18.70
2010,08,23,14,42,18.80
2010,08,23,14,43,18.90
2010,08,23,14,44,18.90
2010,08,23,14,45,18.90
2010,08,23,14,46,18.90
2010,08,23,14,47,18.90
2010,08,23,14,48,18.90
2010,08,23,14,49,18.90
2010,08,23,14,50,18.80
2010,08,23,14,51,18.70
2010,08,23,14,52,18.70
2010,08,23,14,53,18.70
2010,08,23,14,54,18.80
2010,08,23,14,55,19.00
2010,08,23,14,56,19.10
2010,08,23,14,57,19.20
2010,08,23,14,58,19.30
2010,08,23,14,59,19.40
2010,08,23,15,00,19.40
2010,08,23,15,01,19.40
2010,08,23,15,02,19.40
2010,08,23,15,03,19.40
2010,08,23,15,04,19.50
2010,08,23,15,05,19.50
2010,08,23,15,06,19.40
2010,08,23,15,07,19.50
2010,08,23,15,08,19.60
2010,08,23,15,09,19.60
2010,08,23,15,10,19.70
2010,08,23,15,11,19.80
2010,08,23,15,12,19.80
2010,08,23,15,13,19.70
2010,08,23,15,14,19.60
2010,08,23,15,15,19.60
2010,08,23,15,16,19.50
2010,08,23,15,17,19.50
2010,08,23,15,18,19.40
2010,08,23,15,19,19.30
2010,08,23,15,20,19.30
2010,08,23,15,21,19.30
2010,08,23,15,22,19.20
2010,08,23,15,23,19.30
2010,08,23,15,24,19.30
2010,08,23,15,25,19.40
2010,08,23,15,26,19.40
2010,08,23,15,27,19.40
2010,08,23,15,28,19.40
2010,08,23,15,29,19.40
2010,08,23,15,30,19.50
2010,08,23,15,31,19.50
2010,08,23,15,32,19.60
2010,08,23,15,33,19.70
2010,08,23,15,34,19.80
2010,08,23,15,35,20.00
2010,08,23,15,36,20.10
2010,08,23,15,37,20.30
2010,08,23,15,38,20.40
2010,08,23,15,39,20.50
2010,08,23,15,40,20.60
2010,08,23,15,41,20.70
2010,08,23,15,42,20.80
2010,08,23,15,43,20.90
2010,08,23,15,44,20.90
2010,08,23,15,45,20.90
2010,08,23,15,46,20.80
2010,08,23,15,47,20.80
2010,08,23,15,48,20.60
2010,08,23,15,49,20.40
2010,08,23,15,50,20.30
2010,08,23,15,51,20.20
2010,08,23,15,52,20.20
2010,08,23,15,53,20.20
2010,08,23,15,54,20.30
2010,08,23,15,55,20.40
2010,08,23,15,56,20.50
2010,08,23,15,57,20.50
2010,08,23,15,58,20.30
2010,08,23,15,59,20.20
2010,08,23,16,00,20.20
2010,08,23,16,01,20.20
2010,08,23,16,02,20.30
2010,08,23,16,03,20.30
2010,08,23,16,04,20.30
2010,08,23,16,05,20.40
2010,08,23,16,06,20.30
2010,08,23,16,07,20.40
2010,08,23,16,08,20.50
2010,08,23,16,09,20.60
2010,08,23,16,10,20.60
2010,08,23,16,11,20.50
2010,08,23,16,12,20.30
2010,08,23,16,13,20.10
2010,08,23,16,14,19.80
2010,08,23,16,15,19.80
2010,08,23,16,16,19.70
2010,08,23,16,17,19.70
2010,08,23,16,18,19.80
2010,08,23,16,19,19.90
2010,08,23,16,20,20.00
2010,08,23,16,21,20.00
2010,08,23,16,22,20.10
2010,08,23,16,23,20.20
2010,08,23,16,24,20.30
2010,08,23,16,25,20.40
2010,08,23,16,26,20.40
2010,08,23,16,27,20.40
2010,08,23,16,28,20.30
2010,08,23,16,29,20.30
2010,08,23,16,30,20.30
2010,08,23,16,31,20.30
2010,08,23,16,32,20.30
2010,08,23,16,33,20.30
2010,08,23,16,34,20.30
2010,08,23,16,35,20.40
2010,08,23,16,36,20.40
2010,08,23,16,37,20.40
2010,08,23,16,38,20.40
2010,08,23,16,39,20.40
2010,08,23,16,40,20.40
2010,08,23,16,41,20.40
2010,08,23,16,42,20.50
2010,08,23,16,43,20.70
2010,08,23,16,44,20.80
2010,08,23,16,45,20.90
2010,08,23,16,46,20.90
2010,08,23,16,47,20.90
2010,08,23,16,48,21.00
2010,08,23,16,49,21.10
2010,08,23,16,50,21.10
2010,08,23,16,51,21.00
2010,08,23,16,52,21.00
2010,08,23,16,53,20.90
2010,08,23,16,54,20.70
2010,08,23,16,55,20.50
2010,08,23,16,56,20.40
2010,08,23,16,57,20.40
2010,08,23,16,58,20.50
2010,08,23,16,59,20.70
2010,08,23,17,00,20.80
2010,08,23,17,01,20.70
2010,08,23,17,02,20.80
2010,08,23,17,03,20.70
2010,08,23,17,04,20.70
2010,08,23,17,05,20.80
2010,08,23,17,06,20.90
2010,08,23,17,07,21.00
2010,08,23,17,08,21.00
2010,08,23,17,09,21.10
2010,08,23,17,10,21.10
2010,08,23,17,11,21.00
2010,08,23,17,12,21.00
2010,08,23,17,13,21.00
2010,08,23,17,14,20.80
2010,08,23,17,15,20.70
2010,08,23,17,16,20.50
2010,08,23,17,17,20.40
2010,08,23,17,18,20.30
2010,08,23,17,19,20.20
2010,08,23,17,20,20.10
2010,08,23,17,21,19.90
2010,08,23,17,22,19.80
2010,08,23,17,23,19.70
2010,08,23,17,24,19.60
2010,08,23,17,25,19.60
2010,08,23,17,26,19.60
2010,08,23,17,27,19.50
2010,08,23,17,28,19.40
2010,08,23,17,29,19.50
2010,08,23,17,30,19.60
2010,08,23,17,31,19.60
2010,08,23,17,32,19.60
2010,08,23,17,33,19.70